Weather History for New Iberia, LA

Change the Weather History Date:

Thursday, August 22, 2013

  Actual Average Record
Temperature  
Mean Temperature 86 °F 83 °F  
Max Temperature 95 °F 92 °F 98 °F (2011)
Min Temperature 76 °F 74 °F 59 °F (1961)
Degree Days  
Heating Degree Days 0 0  
Month to date heating degree days 0 0  
Since 1 June heating degree days 0 0  
Since 1 July heating degree days 0 0  
Cooling Degree Days 21 18  
Month to date cooling degree days 441 396  
Year to date cooling degree days 2152 1984  
Since 1 June cooling degree days 1571 1414  
Growing Degree Days 35 (Base 50)    
Moisture  
Dew Point 74 °F    
Average Humidity 69    
Maximum Humidity 88    
Minimum Humidity 49    
Precipitation  
Precipitation 0.19 in 0.17 in 4.82 in (1953)
Month to date precipitation 3.50 3.46  
Year to date precipitation 52.58 39.23  
Sea Level Pressure  
Sea Level Pressure 30.03 in    
Wind  
Wind Speed 6 mph (ENE)    
Max Wind Speed 26 mph    
Max Gust Speed 32 mph    
Visibility 9 miles    
Events Rain    
T = Trace of Precipitation, MM = Missing Value Source: NWS Daily Summary

Daily Weather History Graph

Daily Weather History Graph

Search for Another Location

Airport:

Trip Planner

Search our weather history database for the weather conditions in past years. The results will help you decide how hot, cold, wet, or windy it might be!

Date:

Astronomy

Aug. 22, 2013 Rise Set
Actual Time 6:39 AM CDT 7:41 PM CDT
Civil Twilight 6:14 AM CDT 8:05 PM CDT
Nautical Twilight 5:44 AM CDT 8:35 PM CDT
Astronomical Twilight 5:14 AM CDT 9:05 PM CDT
Moon 8:40 PM CDT (8/22) 8:15 AM CDT (8/22)
Length of Visible Light 13h 51m
Length of Day
13h 02m
Waning Gibbous, 96% of the Moon is Illuminated
Aug 22
Waning Gibbous
Aug 28
Last Quarter
Sep 5
New
Sep 12
First Quarter
Sep 19
Full

Hourly Weather History & Observations

Time (CDT) Temp. Heat Index Dew Point Humidity Pressure Visibility Wind Dir Wind Speed Gust Speed Precip Events Conditions
12:53 AM 78.1 °F - 73.0 °F 84% 30.08 in 10.0 mi ENE 3.5 mph - N/A   Clear
1:53 AM 77.0 °F - 73.0 °F 88% 30.07 in 10.0 mi North 3.5 mph - N/A   Clear
2:53 AM 78.1 °F - 73.0 °F 84% 30.06 in 10.0 mi NE 5.8 mph - N/A   Clear
3:53 AM 77.0 °F - 73.0 °F 88% 30.06 in 10.0 mi ENE 5.8 mph - N/A   Clear
4:53 AM 77.0 °F - 73.0 °F 88% 30.04 in 10.0 mi East 3.5 mph - N/A   Clear
5:53 AM 77.0 °F - 73.0 °F 88% 30.06 in 10.0 mi ENE 3.5 mph - N/A   Clear
6:53 AM 78.1 °F - 73.9 °F 87% 30.06 in 8.0 mi ENE 8.1 mph - N/A   Clear
7:53 AM 80.1 °F 84.5 °F 73.9 °F 81% 30.08 in 10.0 mi ENE 8.1 mph - N/A   Clear
8:53 AM 82.9 °F 90.8 °F 75.9 °F 79% 30.08 in 10.0 mi NE 6.9 mph - N/A   Clear
9:53 AM 86.0 °F 96.0 °F 75.9 °F 72% 30.09 in 10.0 mi ENE 5.8 mph - N/A   Clear
10:53 AM 88.0 °F 97.5 °F 75.0 °F 65% 30.09 in 10.0 mi ENE 5.8 mph - N/A   Clear
11:53 AM 90.0 °F 99.0 °F 73.9 °F 59% 30.08 in 10.0 mi NE 8.1 mph - N/A   Partly Cloudy
12:53 PM 91.9 °F 101.3 °F 73.9 °F 55% 30.06 in 10.0 mi ENE 8.1 mph - N/A   Scattered Clouds
1:53 PM 91.9 °F 100.7 °F 73.0 °F 54% 30.04 in 10.0 mi NE 9.2 mph - N/A   Partly Cloudy
2:53 PM 93.9 °F 102.1 °F 72.0 °F 49% 30.01 in 10.0 mi NE 6.9 mph - N/A   Clear
3:53 PM 93.9 °F 102.1 °F 72.0 °F 49% 29.99 in 10.0 mi ENE 8.1 mph - N/A   Partly Cloudy
4:53 PM 90.0 °F 99.0 °F 73.9 °F 59% 30.00 in 8.0 mi ENE 26.5 mph 32.2 mph 0.00 in Rain Light Rain
4:59 PM 84.2 °F 89.6 °F 71.6 °F 66% 30.00 in 1.8 mi Variable 6.9 mph 32.2 mph 0.11 in Rain Heavy Rain
5:13 PM 84.2 °F 90.9 °F 73.4 °F 70% 29.99 in 3.0 mi WSW 4.6 mph - 0.19 in Rain Light Rain
5:53 PM 89.1 °F 98.0 °F 73.9 °F 61% 29.97 in 10.0 mi Calm Calm - 0.19 in   Clear
6:53 PM 84.9 °F 93.3 °F 75.0 °F 72% 29.97 in 10.0 mi South 6.9 mph - N/A   Clear
7:53 PM 82.9 °F 90.8 °F 75.9 °F 79% 29.98 in 10.0 mi SSW 3.5 mph - N/A   Clear
8:53 PM 82.0 °F 89.4 °F 75.9 °F 82% 29.99 in 10.0 mi Calm Calm - N/A   Partly Cloudy
9:53 PM 82.0 °F 88.6 °F 75.0 °F 79% 30.01 in 10.0 mi Calm Calm - N/A   Clear
10:53 PM 80.1 °F 85.1 °F 75.0 °F 85% 30.01 in 10.0 mi Calm Calm - N/A   Clear
11:53 PM 80.1 °F 85.4 °F 75.9 °F 87% 30.01 in 10.0 mi Calm Calm - N/A   Clear